Union Aéronautique de la Côte d'Azur

Union Aéronautique de la Côte d'Azur
UACA
Approuvé A.T.O. EASA – N°FR.ATO.0108

UNION des aéroclubs
Cannes “Ailes d’Azur”, Nice “Côte d’Azur”, Grasse “St Exupery”, ACCA “Francis Séverac”

Un cache-pitot se trouve à bord de chaque avion. Pensez à le mettre en place à la fin de chaque vol !

Avant de quitter l'avion, vérifiez que vous n'emportez pas la checklist

Un vol ne s'entreprend qu'avec un pare-brise parfaitement propre, il en va de votre sécurité, et de celle des autres

Après chaque vol, merci de mettre en place les pares-soleil!


Météo à Cannes:
METAR
LFMD 271530Z AUTO 17013KT CAVOK 28/22 Q1013 BECMG VRB03KT =
LFMD 271400Z 2715/2815 18010KT CAVOK BECMG 2717/2719 VRB03KT

TAF
LFMD 271400Z 2715/2815 18010KT CAVOK BECMG 2717/2719 VRB03KT =

SR / SS: 04:12 / 19:05 UTC (LFMD 2021-07-27)